Location: Rz??nica
(53.4333°N, 14.7667°E)
Time: 14:36:19
(UTC+00:00)

Daily predictions for brighter satellites

Satellite Brightness Start Highest point End
(mag) Time Altitude Azimuth Time Altitude Azimuth Time Altitude Azimuth
Cosmos 1818 3.6 18:43:38 10° SSW 18:48:59 61° SE 18:54:24 10° NE
NOSS 3-4 (A) 4.0 18:43:15 10° WSW 18:49:12 67° NW 18:55:45 10° NE
Cosmos 192 4.4 18:44:12 10° NNW 18:49:12 88° WSW 18:54:09 10° SSE
NOSS 3-4 (C) 4.0 18:43:21 10° WSW 18:49:17 67° NW 18:55:50 10° NE
Cosmos 1825 2.9 18:48:59 10° NNW 18:52:44 58° W 18:56:26 10° S
USA 102 1.0 18:54:37 25° E 18:55:07 49° NNE 19:02:43 10° NNW
NOSS 7 (E) 4.2 18:52:24 10° SW 18:55:55 88° SE 18:58:59 10° NE
Cosmos 1655 Rocket 4.3 18:52:19 10° N 18:58:29 53° ENE 19:04:34 10° SSE
Cosmos 1809 Rocket 4.5 18:53:35 10° N 18:59:42 69° ENE 19:05:47 10° SSE
Abrixas rocket 2.8 18:59:32 10° SSW 19:00:12 12° S 19:00:44 11° SSE
CZ-4C R/B 3.5 18:55:06 10° W 19:00:22 47° NNW 19:06:47 10° NE
Cosmos 2227 Rocket 3.1 18:55:52 10° SSE 19:00:35 28° ESE 19:05:20 10° NE
BREEZE-M DEB (TANK) 4.3 18:58:42 10° SW 19:01:58 50° SSE 19:10:38 10° E
Cosmos 2058 3.8 18:58:13 10° NNW 19:02:19 53° W 19:06:22 10° S
ATLAS 2AS CENTAUR R/B 3.2 18:54:53 10° SW 19:02:50 80° NW 19:10:33 10° NE
Cosmos 1633 2.7 19:01:34 10° N 19:05:08 54° ENE 19:08:39 10° SSE
Cosmos 2297 Rocket 2.7 19:01:56 10° S 19:07:06 38° ESE 19:12:17 10° NE
Lacrosse 5 rocket 2.2 19:04:30 10° WNW 19:08:35 51° N 19:12:53 10° ENE
IRIDIUM 106 4.5 19:03:35 10° SSE 19:08:41 57° E 19:13:49 10° N
FALCON 9 DEB 4.4 19:10:29 10° S 19:12:32 17° SE 19:14:19 11° ESE
Genesis I 3.5 19:09:44 10° NW 19:13:43 67° SW 19:17:40 10° SSE
Meteor 2-14 Rocket 4.5 19:07:44 10° N 19:13:50 72° ENE 19:19:54 10° SSE
Resurs 01 Rocket 1.7 19:09:31 10° SSE 19:13:58 71° ENE 19:18:25 10° N
Cosmos 2333 Rocket 4.5 19:10:34 10° NW 19:14:56 23° WSW 19:19:14 10° SSW
Resurs 1-3 3.8 19:11:21 10° S 19:15:44 73° WSW 19:20:08 10° NNW
Cosmos 2219 3.6 19:11:02 10° S 19:16:13 40° ESE 19:21:27 10° NE
BREEZE-M DEB (TANK) 3.9 19:12:54 10° WSW 19:17:07 63° SSE 19:32:27 10° E
Meteor 1-4 Rocket 4.3 19:16:24 12° ESE 19:18:00 16° E 19:20:12 10° NE
CZ-2C R/B 4.3 19:13:52 10° N 19:18:37 37° WNW 19:23:24 10° SW
SJ-6B 4.3 19:16:22 10° SSW 19:19:49 35° W 19:23:21 10° NNW
Cosmos 1763 Rocket 4.3 19:15:19 10° NNW 19:20:03 37° NE 19:24:15 12° ESE
ERS-2 3.9 19:17:43 10° N 19:21:07 37° WNW 19:24:29 10° SW
Cosmos 2084 Rocket 4.1 19:20:51 10° S 19:24:15 28° SE 19:27:44 10° ENE
FALCON 9 DEB 4.2 19:22:10 10° SSW 19:24:32 21° SSE 19:26:05 15° ESE
Cosmos 389 Rocket 2.5 19:21:07 10° SSW 19:24:39 90° NNW 19:28:16 10° NNE
Cosmos 1190 Rocket 4.4 19:20:04 10° S 19:24:59 43° ESE 19:29:53 10° NE
NOSS 3-1 (C) 4.2 19:18:20 10° NW 19:25:15 64° NE 19:32:59 12° ESE
Ariane Rocket 3.7 19:21:16 10° S 19:26:13 55° W 19:31:12 10° NNW
Terra 3.2 19:25:00 12° ESE 19:28:26 24° ENE 19:32:15 10° N
Cosmos 614 Rocket 4.0 19:23:21 10° SSW 19:28:30 87° WNW 19:33:38 10° NNE
ATLAS 3B R/B 4.3 19:23:53 10° WNW 19:29:53 31° WSW 19:36:05 10° S
Cosmos 2251 Rocket 4.0 19:25:00 10° SW 19:30:20 68° WNW 19:35:41 10° NNE
FALCON 9 DEB 3.1 19:27:28 10° WSW 19:30:52 67° SSE 19:34:17 10° E
Cosmos 2279 Rocket 4.1 19:28:50 10° S 19:35:02 85° W 19:41:18 10° N
SPOT 5 3.7 19:34:55 15° ESE 19:38:16 36° ENE 19:42:44 10° N
SPOT 1/Viking Rocket 3.6 19:33:39 12° SSE 19:38:27 68° ENE 19:43:40 10° NNW
SL-16 R/B 2.2 19:32:59 10° NNW 19:38:44 80° ENE 19:43:25 16° SE
Cosmos 2151 3.2 19:35:10 10° NNW 19:39:30 74° W 19:43:46 10° S
Meteor 2-21 Rocket 4.4 19:33:51 10° N 19:39:57 86° E 19:46:03 10° S
USA 215 3.3 19:34:16 13° ESE 19:40:13 83° SSW 19:46:49 10° WNW
Cosmos-2242 3.1 19:36:44 10° S 19:40:59 58° E 19:45:13 10° NNE
Cosmos 676 Rocket 4.5 19:38:40 10° S 19:43:25 38° ESE 19:48:12 10° NE
FALCON 9 DEB 3.9 19:43:42 10° SSW 19:46:16 25° SSE 19:46:42 24° SE
SPOT 3 Rocket 3.8 19:41:15 10° S 19:46:25 69° WSW 19:51:37 10° NNW
Meteor 2-16 Rocket 4.5 19:44:06 10° N 19:50:19 86° E 19:56:11 11° S
COSMOS 2455 3.4 19:45:00 10° S 19:50:24 36° ESE 19:55:50 10° NE
SL-4 R/B 2.9 19:49:19 10° SSW 19:53:19 33° SSE 19:57:32 10° E
ATLAS 5 CENTAUR R/B 3.8 19:49:25 10° WNW 19:53:20 26° N 19:57:50 10° NE
Cosmos 1408 Rocket 4.1 19:51:16 10° N 19:55:23 41° ENE 19:57:46 22° SE
Cosmos 2266 Rocket 4.2 19:49:44 10° NNW 19:56:09 79° W 20:02:25 10° S
ERS-1 Rocket 3.3 19:53:53 19° SE 19:57:18 53° ENE 20:02:13 10° N
IGS 5A 4.1 19:54:26 10° S 19:58:30 53° W 20:02:35 10° NNW
Landsat 7 4.2 19:55:13 10° S 19:59:52 62° WSW 20:04:38 10° NNW
OBJECT-B 3.9 19:58:38 10° WSW 19:59:58 12° W 20:01:20 10° WNW
Cosmos 1862 4.0 20:00:22 10° N 20:04:07 39° ENE 20:05:51 25° ESE
Cosmos 1943 4.0 19:59:09 10° NNW 20:04:30 42° NE 20:08:18 18° ESE
Cosmos 2221 3.5 20:05:05 23° ESE 20:06:26 28° E 20:10:06 10° NNE
ARIANE 5 R/B 2.6 20:04:04 20° SSE 20:07:05 86° ENE 20:11:29 10° NNW
USA 245 2.9 20:05:50 21° S 20:07:58 69° WSW 20:10:51 10° NNW
Cosmos 2344 3.8 20:00:50 10° WSW 20:08:15 75° NW 20:16:46 10° NE
Cosmos 407 Rocket 3.7 20:03:57 10° SSW 20:09:06 75° WNW 20:14:20 10° NNE
Meteor 2-3 Rocket 4.4 20:06:33 10° NNW 20:12:11 56° W 20:17:43 10° S
Orbus 7S? 4.0 20:10:22 10° WSW 20:13:48 77° NNW 20:21:30 10° ENE
Cosmos 1743 Rocket 4.4 20:10:06 10° N 20:14:09 36° ENE 20:15:53 25° ESE
Nadezhda 2 Rocket 4.5 20:12:33 10° N 20:18:51 72° ENE 20:22:56 23° SSE
Cosmos 44 Rocket 3.7 20:15:54 10° SSW 20:20:45 46° ESE 20:25:44 10° NE
Meteor 1-27 4.3 20:15:00 10° S 20:20:47 88° ESE 20:26:40 10° NNE
Cosmos 1140 Rocket 3.8 20:17:17 10° SW 20:22:23 67° WNW 20:27:32 10° NNE
CZ-2C R/B 3.8 20:18:18 10° NNE 20:22:45 76° WNW 20:27:10 10° SSW
Cosmos 2237 Rocket 4.1 20:20:52 10° NW 20:25:10 23° WSW 20:29:26 10° SSW
Cosmos 1954 Rocket 3.9 20:21:15 10° SSW 20:26:25 79° ESE 20:31:37 10° NNE
Timation 2 Rocket 4.0 20:23:01 10° SW 20:29:33 85° WNW 20:35:50 10° NNE
Cosmos 1606 4.1 20:31:58 23° E 20:31:58 23° E 20:34:56 10° NE
Cosmos 1500 Rocket 3.9 20:27:54 10° N 20:32:19 53° ENE 20:33:58 34° SE
NOSS 2 (A) 4.0 20:29:58 10° NW 20:32:54 88° SW 20:33:00 82° SSE
Cosmos 1766 Rocket 4.2 20:29:17 10° NNW 20:33:30 50° W 20:36:21 19° SSW
Meteor 2-15 4.4 20:29:12 19° S 20:33:35 70° E 20:39:37 10° NNE
USA 229 DEB 3.9 20:27:31 10° NW 20:34:45 86° NE 20:39:35 25° SE
USA 229 3.9 20:27:37 10° NW 20:34:50 86° NE 20:39:41 25° SE
Cosmos 2263 Rocket 3.1 20:34:38 26° ESE 20:35:29 28° ESE 20:40:08 10° NE
Spot 2 Rocket 4.0 20:32:07 19° S 20:35:41 56° W 20:40:42 10° NNW
CARTOSAT-1 3.9 20:33:27 24° S 20:35:55 60° WSW 20:40:13 10° NNW
BREEZE M DEB (TANK) 2.3 20:31:08 10° WSW 20:36:24 43° S 20:36:34 43° S
Aureole 1 Rocket 4.1 20:35:06 30° SE 20:36:26 34° ESE 20:40:31 10° NE
FALCON 9 DEB 4.5 20:40:15 10° SW 20:41:38 23° SW 20:41:38 23° SW
H-2A R/B 3.7 20:39:30 10° NNE 20:43:39 51° E 20:44:42 40° SSE
Cosmos 2227 Rocket 2.6 20:38:37 10° SW 20:44:16 66° NW 20:49:56 10° NNE
Cosmos 2082 3.6 20:38:42 10° SSW 20:44:18 79° ESE 20:49:58 10° NNE
FALCON 9 DEB 4.2 20:44:50 10° WSW 20:46:28 28° SW 20:46:28 28° SW
Lacrosse 5 rocket 1.5 20:43:47 10° WNW 20:48:05 81° NNE 20:49:58 34° ESE
Cosmos 468 Rocket 4.5 20:44:11 10° NNW 20:49:10 53° WSW 20:51:46 27° S
Cosmos 2208 Rocket 4.4 20:44:39 10° NNW 20:49:55 57° ENE 20:52:16 32° ESE
CZ-4C R/B 4.1 20:44:48 10° WNW 20:50:19 35° N 20:56:53 10° ENE
Resurs 01 Rocket 4.1 20:47:56 10° SW 20:50:57 18° W 20:53:59 10° NW
Cosmos 1869 4.1 20:47:58 16° SSW 20:50:58 50° WNW 20:54:48 10° N
Cosmos 2297 Rocket 3.1 20:45:33 10° SW 20:51:03 51° NW 20:56:35 10° NNE
Cosmos 1553 Rocket 4.0 20:48:26 30° SSE 20:51:25 59° E 20:57:26 10° NNE
Meteor 1-4 Rocket 3.3 20:50:31 21° SW 20:52:37 48° WNW 20:56:06 10° N
NOSS 3-1 (A) 4.0 20:45:27 10° NW 20:52:40 86° SW 20:57:37 28° SE
Cosmos 1603 3.7 20:47:39 10° NNW 20:53:25 82° ENE 20:55:59 35° SE
Cosmos 841 Rocket 3.4 20:48:53 10° NNW 20:54:09 89° ENE 20:56:15 37° SSE
ATLAS 2AS CENTAUR R/B 4.2 20:47:24 10° W 20:54:50 43° NNW 21:01:57 10° NE
ALOS 2 4.3 20:58:14 18° E 20:59:41 21° ENE 21:03:01 10° N
Cosmos 2219 4.2 20:54:54 10° WSW 21:00:19 48° NW 21:05:48 10° NNE
Cosmos 1763 Rocket 4.2 20:57:10 10° NW 21:01:58 43° WSW 21:04:17 26° SSW
Cosmos 2084 Rocket 3.9 20:59:31 10° WSW 21:03:29 59° NW 21:07:34 10° NE
Terra 2.1 21:03:52 34° S 21:05:50 62° WSW 21:10:36 10° NNW
FALCON 9 DEB 3.0 21:04:17 10° W 21:07:41 82° SSW 21:07:41 82° SSW
Cosmos 540 Rocket 3.6 21:04:46 10° NNW 21:09:52 65° WSW 21:11:41 38° S
Cosmos 1814 Rocket 4.0 21:04:33 10° NNW 21:09:55 86° ENE 21:11:45 42° SSE
NOSS 2-1 (E) 3.3 21:10:55 50° ENE 21:10:55 50° ENE 21:13:49 10° NE
Cosmos 921 Rocket 3.0 21:06:52 10° NNW 21:11:20 83° WSW 21:12:20 53° SSE
NOSS 3-1 (C) 4.4 21:09:12 10° NW 21:16:19 53° SW 21:20:23 30° S
SPOT 5 3.9 21:14:08 24° SSW 21:16:20 38° W 21:20:54 10° NNW
Meteor 2-2 Rocket 4.4 21:15:41 24° SSW 21:19:17 75° WNW 21:24:59 10° N
SL-16 R/B 4.0 21:17:56 10° NW 21:22:15 23° WSW 21:25:19 15° SW
Cosmos 1842 Rocket 4.0 21:20:26 31° SW 21:22:23 60° WNW 21:26:51 10° N
Cosmos 1174 3.7 21:18:14 10° NW 21:22:56 86° SW 21:23:25 69° SSE
USA 215 4.0 21:21:35 29° S 21:23:48 36° SW 21:29:47 10° WNW
NOSS 2-2 (E) 4.4 21:20:01 10° NW 21:24:54 66° NE 21:28:18 28° ESE
APEX 4.4 21:29:37 23° NNE 21:29:37 23° NNE 21:30:49 10° NNE
Cosmos 1437 Rocket 3.2 21:29:53 46° ENE 21:29:53 46° ENE 21:33:11 10° NNE
SL-4 R/B 2.2 21:28:03 10° WSW 21:32:36 67° S 21:33:32 52° ESE
Cosmos 2315 Rocket 4.4 21:31:12 38° SE 21:33:04 48° E 21:39:09 10° NNE
Meteor 1-25 Rocket 4.2 21:29:05 10° NNW 21:34:51 79° ENE 21:36:42 45° SSE
COSMOS 2455 3.3 21:30:08 10° SW 21:36:07 62° NW 21:42:07 10° NE
ATLAS 5 CENTAUR R/B 3.4 21:34:37 10° NW 21:39:13 36° NNE 21:44:35 10° E
Sich 1 2.9 21:36:41 10° NNW 21:40:59 80° W 21:41:28 68° SSW
Cosmos 1805 Rocket 3.7 21:36:58 10° NNW 21:41:17 63° W 21:41:58 54° SW
Cosmos 2227 4.1 21:40:44 43° S 21:42:39 72° ESE 21:48:23 10° NE
Cosmos 2221 3.7 21:41:54 24° WSW 21:43:52 38° WNW 21:47:55 10° N
Meteor 1-20 Rocket 4.2 21:40:27 10° NNW 21:46:18 84° WSW 21:48:01 48° S
Cosmos 1943 3.7 21:43:16 10° NW 21:48:40 48° WSW 21:50:06 39° SSW
Cosmos 1745 Rocket 4.4 21:44:39 10° NNW 21:50:50 58° W 21:53:26 34° SSW
TIMED 4.3 21:46:34 10° NNW 21:50:59 84° ENE 21:51:21 74° SE
SeaSat 1 2.7 21:46:24 10° NE 21:51:13 49° ESE 21:51:18 49° ESE
Cosmos 1470 Rocket 4.0 21:50:24 10° N 21:54:42 47° ENE 21:55:06 45° E
Cosmos 1709 Rocket 3.9 21:49:54 10° NNW 21:56:10 82° W 21:58:10 46° S
NOSS 2-1 (C) 3.9 21:56:12 35° W 21:57:10 48° NNW 22:00:49 10° NE
Iridium 4 Rocket 3.7 21:58:16 50° ESE 21:59:07 56° E 22:04:30 10° N
USA 281 4.1 21:56:17 19° ESE 22:00:36 42° NE 22:06:43 10° NNW
Spot 4 3.8 22:00:15 61° S 22:01:03 78° WSW 22:05:58 10° NNW
Meteor 1-26 Rocket 4.4 21:59:48 48° SE 22:01:05 59° E 22:06:46 10° NNE
Cosmos 1633 Rocket 2.8 21:57:34 10° N 22:01:58 87° E 22:02:12 79° SSE
Cosmos 44 Rocket 4.3 21:57:21 10° WSW 22:02:21 49° NW 22:07:28 10° NE
NOSS 2-1 (D) 4.1 22:02:34 30° W 22:03:48 43° NNW 22:07:26 10° NE
Cosmos 1606 3.8 22:06:56 34° W 22:07:27 36° WNW 22:10:59 10° N
S3M 4.3 22:05:25 32° SW 22:08:29 63° WNW 22:14:52 10° N
Cosmos 883 Rocket 4.4 22:06:44 45° SSW 22:08:51 88° W 22:15:13 10° N
Cosmos 1933 Rocket 4.1 22:06:39 10° N 22:10:53 45° ENE 22:11:11 45° E
Cosmos 1500 3.5 22:08:15 10° N 22:11:44 61° NE 22:11:44 61° NE
Cosmos 1812 4.2 22:12:58 28° ENE 22:12:58 28° ENE 22:15:40 10° NNE
Cosmos 1666 Rocket 3.7 22:08:13 10° NNW 22:12:40 64° W 22:12:59 62° WSW
Cosmos 2263 Rocket 2.4 22:16:15 30° SW 22:19:01 66° NW 22:24:37 10° NNE
Aureole 1 Rocket 4.3 22:17:34 20° WSW 22:20:47 42° WNW 22:24:50 10° NNE
Cosmos 1328 Rocket 3.5 22:22:33 70° E 22:22:33 70° E 22:27:00 10° NNE
Cosmos 1242 Rocket 3.1 22:23:55 57° NNE 22:23:55 57° NNE 22:26:53 10° NNE
Cosmos 968 Rocket 3.5 22:22:53 60° SE 22:23:22 63° ESE 22:28:34 10° NNE
NOSS 2-2 (D) 4.2 22:19:01 10° NW 22:24:03 77° SW 22:25:44 50° SSE
Lacrosse 5 rocket 2.9 22:23:05 10° WNW 22:25:35 26° W 22:25:35 26° W
Cosmos 1782 2.9 22:28:48 77° N 22:28:48 77° N 22:32:36 10° N
COBE Rocket 3.8 22:29:10 64° SE 22:29:47 74° ENE 22:34:44 10° N
Cosmos 1844 Rocket 3.0 22:30:56 45° ESE 22:31:12 46° ESE 22:36:31 10° NE
Thor Agena Rocket 4.0 22:27:03 10° NNE 22:31:59 45° E 22:32:22 44° ESE
Cosmos 1151 Rocket 3.0 22:34:17 76° W 22:34:21 77° W 22:38:44 10° N
Cosmos 1536 4.2 22:31:58 10° N 22:35:37 30° ENE 22:35:54 30° ENE
ALOS 2 2.7 22:35:37 63° WSW 22:35:40 63° WSW 22:40:03 10° NNW
CZ-4C R/B 3.5 22:33:51 10° NW 22:40:14 51° NNE 22:47:53 10° ESE
Cosmos 1933 4.4 22:45:09 35° W 22:45:33 36° WNW 22:49:21 10° N
ATLAS 2AS CENTAUR R/B 4.1 22:40:16 10° WNW 22:47:31 41° N 22:54:19 10° E
Cosmos 2082 Rocket 3.8 22:45:49 10° NNW 22:50:48 31° NE 22:55:45 10° ESE
Meteor 1-10 Rocket 4.4 22:51:58 49° SE 22:52:51 55° E 22:58:16 10° NNE
Cosmos 1833 Rocket 3.5 22:47:32 10° NNW 22:53:00 47° NE 22:56:05 24° ESE
Cosmos 1340 Rocket 4.5 22:50:57 10° N 22:54:22 25° ENE 22:55:06 24° E
Cosmos 2228 Rocket 3.8 22:55:22 41° E 22:55:22 41° E 22:59:26 10° NNE
SL-16 R/B 4.2 22:51:38 10° ESE 22:56:46 28° NE 23:01:55 10° N
Cosmos 1486 Rocket 3.9 22:57:26 63° SSW 22:58:21 88° WNW 23:03:43 10° NNE
Cosmos 1271 Rocket 3.8 23:00:44 36° ENE 23:00:44 36° ENE 23:03:53 10° NNE
Meteor 1-5 Rocket 4.2 22:54:53 10° NNW 23:00:35 66° W 23:01:31 56° SSW
Cosmos 2154 Rocket 4.0 22:55:57 10° N 23:02:22 85° E 23:04:10 51° SSE
USA 290 4.0 23:04:39 10° NNW 23:06:25 28° NW 23:06:25 28° NW
SL-4 R/B 4.0 23:07:32 10° W 23:09:09 21° W 23:09:09 21° W
Meteor 2-6 Rocket 4.0 23:11:23 63° SSW 23:12:18 88° WNW 23:17:45 10° NNE
Cosmos 2184 Rocket 4.2 23:07:11 10° NNW 23:13:25 61° W 23:14:58 47° SW
Cosmos 2327 Rocket 4.4 23:08:07 10° NNW 23:14:24 84° W 23:16:08 52° S
Cosmos 1869 Rocket 3.4 23:11:31 10° N 23:15:56 85° E 23:15:56 85° E
EO 1 Del DPAF 3.9 23:12:24 10° NNE 23:15:29 48° ENE 23:15:29 48° ENE
SJ 16-02 3.2 23:17:22 20° E 23:17:22 20° E 23:20:36 10° NE
Cosmos 1515 Rocket 3.8 23:19:41 58° W 23:19:55 59° WNW 23:24:21 10° N
Cosmos 2278 Rocket 3.6 23:19:29 23° ESE 23:20:19 24° ESE 23:24:44 10° NE
Cosmos 1666 3.7 23:17:05 10° NNW 23:20:00 39° WNW 23:20:00 39° WNW
ATLAS 5 CENTAUR R/B 2.1 23:19:06 10° NW 23:24:26 88° NE 23:27:06 36° SE
USA 305 3.3 23:25:51 54° E 23:25:51 54° E 23:29:14 10° ENE
SeaSat 1 3.6 23:24:05 10° NNE 23:28:40 39° NW 23:31:05 24° W
Cosmos 2341 Rocket 4.1 23:22:23 10° N 23:28:46 74° ENE 23:31:01 43° SSE
Cosmos 1295 Rocket 4.5 23:22:46 10° NNW 23:29:03 76° W 23:30:44 51° SSW
EO 1 Delta rocket 4.4 23:27:58 42° ESE 23:29:03 51° ENE 23:33:38 10° N
SL-8 Rocket 4.3 23:24:50 10° N 23:31:06 63° ENE 23:33:40 36° SE
Cosmos 1241 Rocket 4.5 23:33:02 47° SSW 23:35:09 82° SE 23:41:48 10° NE
Cosmos 1544 3.6 23:33:07 10° N 23:36:05 58° N 23:36:05 58° N
Cosmos 1707 Rocket 3.9 23:42:09 51° ESE 23:42:23 52° E 23:46:38 10° NNE
USA 306 2.8 23:43:11 81° E 23:43:11 81° E 23:47:18 10° E
COSMOS 2406 3.1 23:37:27 10° NNW 23:43:10 89° WSW 23:44:55 47° SSE
Cosmos 1844 3.8 23:41:40 48° SW 23:43:19 76° NW 23:49:04 10° NNE
Cosmos 158 Rocket 4.1 23:38:42 10° NNW 23:43:39 66° ENE 23:45:07 43° SE
USA 281 3.3 23:43:08 46° SSW 23:44:56 61° WSW 23:51:29 10° NNW
Cosmos 1503 Rocket 4.1 23:44:44 50° WSW 23:45:54 65° WNW 23:51:05 10° NNE
Helios 1B rocket 4.3 23:43:52 10° NE 23:46:57 20° E 23:47:40 19° ESE
Cosmos 1812 4.1 23:48:00 29° WNW 23:48:00 29° WNW 23:51:26 10° N
Cosmos 962 Rocket 4.4 23:44:40 10° NNW 23:50:52 74° W 23:52:36 49° SSW
Cosmos 1238 Rocket 4.1 23:46:34 10° N 23:52:59 81° E 23:55:40 39° SSE
Gbstr 26 Del rocket 4.0 23:53:46 47° S 23:54:16 48° SSE 23:59:32 10° E
